Home > Weather > Xiamen > Past weeks

Flag for China Past Weather in Xiamen, Fujian, China — Yesterday and Last 2 Weeks

Now
84 °F

Passing clouds.


Feels Like: 98 °F
Forecast: 81 / 89 °F
Wind: 6 mph from South

Location: Xiamen Airport

Current Time: Jun 29, 2016 at 2:56:07 AM

Latest Report: Jun 29, 2016 at 2:00 AM


Visibility: N/A

Pressure: 29.86 "Hg

Humidity: 89%

Dew Point: 81 °F

Location of XiamenLocation

Past Weather in Xiamen — Graph

°F

Xiamen Temperature Yesterday

Maximum temperature yesterday: 93 °F (at 2:00 PM)
Minimum temperature yesterday: 84 °F (at 3:00 AM)
Average temperature yesterday: 88 °F

High & Low Weather Summary for the Past Weeks

 TemperatureHumidityPressure
High97 °F (Jun 22, 1:00 PM)100% (Jun 14, 1:00 AM)29.92 "Hg (Jun 14, 1:00 AM)
Low79 °F (Jun 14, 7:00 AM)44% (Jun 27, 4:00 PM)29.62 "Hg (Jun 14, 1:00 AM)
Average86 °F81%29.77 "Hg
* Reported Jun 14 1:00 AM — Jun 29 1:00 AM, Xiamen, Weather by CustomWeather, © 2016

Note: Actual official high and low records may vary slightly from our data, if they occured in-between our weather recording intervals... More about our weather records

Advertising

Xiamen Weather History for the Previous 24 Hours

Scroll right to see more
 ConditionsComfort  
Time TempWeatherWind HumidityBarometerVisibility
1:00 AM
Wed, Jun 29
84 °FPassing clouds.6 mph89%29.86 "HgN/A
12:00 AM84 °FPassing clouds.6 mph89%29.89 "HgN/A
11:00 PM
Tue, Jun 28
86 °FPassing clouds.6 mph84%29.89 "HgN/A
10:00 PM86 °FPassing clouds.6 mph84%29.89 "HgN/A
9:00 PM86 °FPassing clouds.6 mph84%29.89 "HgN/A
8:00 PM86 °FClear.6 mph79%29.86 "Hg10 mi
7:00 PM88 °FPassing clouds.8 mph66%29.83 "HgN/A
6:00 PM90 °FPassing clouds.10 mph59%29.80 "HgN/A
5:00 PM91 °FScattered clouds.8 mph56%29.80 "HgN/A
4:00 PM93 °FScattered clouds.10 mph53%29.80 "HgN/A
3:00 PM93 °FScattered clouds.10 mph53%29.80 "HgN/A
2:00 PM93 °FScattered clouds.10 mph53%29.83 "HgN/A
1:00 PM91 °FPartly sunny.10 mph63%29.83 "HgN/A
12:00 PM91 °FPartly sunny.8 mph63%29.83 "HgN/A
11:00 AM91 °FPartly sunny.6 mph59%29.86 "HgN/A
10:00 AM90 °FPartly sunny.3 mph67%29.83 "HgN/A
9:00 AM88 °FPartly sunny.3 mph66%29.83 "HgN/A
8:00 AM88 °FPartly sunny.1 mph66%29.83 "HgN/A
7:00 AM86 °FPartly sunny.6 mph79%29.80 "HgN/A
6:00 AM84 °FPartly sunny.3 mph89%29.80 "HgN/A
5:00 AM84 °FPassing clouds.6 mph89%29.77 "HgN/A
4:00 AM84 °FPassing clouds.8 mph89%29.77 "HgN/A
3:00 AM84 °FPassing clouds.8 mph89%29.77 "HgN/A
2:00 AM86 °FPassing clouds.6 mph84%29.80 "HgN/A
Weather by CustomWeather, © 2016

See weather overviewHow to use our weather pages